#timestamp,LO_Frequency,Hit,StdDev 
1627495215.2,286046998.9,N
1627495235.1,286046998.9,N
1627495236.0,286046998.9,N
1627495255.8,286046999.2,N
1627495275.6,286046997.0,N
1627495295.5,286046999.1,N
1627495315.3,286046996.6,Y
1627495335.2,286047000.4,P
1627495355.9,286047002.8,P
1627495375.7,286047002.6,N
1627495395.6,286047002.0,N
1627495415.4,286047000.0,N
1627495435.2,286047000.1,N
1627495455.1,286047000.4,N
1627495456.0,286047000.4,N
1627495475.8,286047000.3,N
1627495495.7,286047000.1,N
1627495515.5,286047001.3,N
1627495535.3,286047003.9,Y
1627495555.2,286047000.1,P
1627495575.0,286047002.6,P
1627495575.9,286047002.6,N
1627495595.7,286046999.9,N
1627495615.6,286046999.7,N
1627495635.4,286047002.8,N
1627495655.3,286046999.7,N
1627495675.1,286047000.2,N
1627495676.0,286047000.2,N
1627495695.8,286046999.9,N
1627495715.7,286047002.1,N
1627495735.5,286047001.6,N
1627495755.3,286047001.7,N
1627495775.2,286047004.2,Y
1627495795.0,286047001.5,P
1627495795.9,286047001.5,P
1627495815.8,286047001.9,P
1627495835.6,286047002.0,Y
1627495855.4,286046999.1,P
1627495875.3,286047000.8,N
1627495895.1,286047001.0,N
1627495915.8,286047000.0,N
1627495935.7,286046999.9,N
1627495955.5,286047002.7,Y
1627495975.4,286047000.5,P
1627495995.2,286047000.3,P
1627496015.0,286047000.3,P
1627496015.9,286047000.3,Y
1627496035.8,286047000.0,P
1627496055.6,286047000.6,P
1627496075.5,286047000.0,N
1627496095.3,286046999.9,N
1627496115.1,286047002.8,Y
1627496135.9,286047000.0,P
1627496155.7,286047001.0,P
1627496175.5,286046998.9,N
1627496195.4,286046998.6,N
1627496215.2,286047001.1,N
1627496235.1,286047000.7,N
1627496236.0,286047000.7,N
1627496255.8,286047000.5,N
1627496275.6,286047002.8,Y
1627496295.5,286047002.8,P
1627496315.3,286046999.8,N
1627496335.1,286046999.9,N
1627496355.9,286047000.6,N
1627496375.7,286047002.3,N
1627496395.6,286047000.0,N
1627496415.4,286046999.9,N
1627496435.2,286047002.4,N
1627496455.1,286046999.7,N
1627496456.0,286046999.7,N
1627496475.8,286047001.5,N
1627496495.6,286047001.9,N
1627496515.5,286047002.2,N
1627496535.3,286047001.6,N
1627496555.2,286047001.6,N
1627496575.9,286047001.5,N
1627496595.7,286047002.7,N
1627496615.6,286046999.7,N
1627496635.4,286047000.2,N
1627496655.2,286047001.5,N
1627496675.1,286047001.5,N
1627496676.0,286047001.5,N
1627496695.8,286047003.9,Y
1627496715.7,286046999.9,P
1627496735.5,286046999.8,N
1627496755.3,286046999.7,N
1627496775.2,286047001.2,N
1627496795.0,286046999.0,N
1627496795.9,286046999.0,N
1627496815.8,286046998.5,N
1627496835.6,286047000.8,N
1627496855.4,286046999.2,N
1627496875.3,286046998.5,N
1627496895.1,286046999.1,N
1627496915.8,286047000.7,N
1627496935.7,286047000.0,N
1627496955.5,286046999.7,N
1627496975.4,286047000.3,N
1627496995.2,286046999.3,N
1627497015.0,286046997.7,N
1627497015.9,286046997.7,N
1627497035.8,286046997.2,N
1627497055.6,286046997.8,N
1627497075.5,286046995.3,Y
1627497095.3,286046996.9,P
1627497115.1,286046997.1,N
1627497135.9,286046997.1,N
1627497155.7,286046995.0,Y
1627497175.5,286047001.2,P
1627497195.4,286046998.7,N
1627497215.2,286046999.3,N
1627497235.1,286046998.3,N
1627497236.0,286046998.3,N
1627497255.8,286046998.4,N
1627497275.6,286047000.3,N
1627497295.5,286047000.9,N
1627497315.3,286047000.0,N
1627497335.1,286047000.3,N
1627497355.9,286047002.6,N
1627497375.7,286047002.8,N
1627497395.6,286047000.3,N
1627497415.4,286047002.7,N
1627497435.2,286047002.4,N
1627497455.1,286047002.7,N
1627497456.0,286047002.7,N
1627497475.8,286047000.0,N
1627497495.6,286047000.3,N
1627497515.5,286047000.4,N
1627497535.3,286047000.7,N
1627497555.2,286047000.6,N
1627497575.9,286047001.1,N
1627497595.7,286047000.4,N
1627497615.6,286047000.9,N
1627497635.4,286047000.2,N
1627497655.2,286047001.0,N
1627497675.1,286047000.3,N
1627497676.0,286047000.3,N
1627497695.8,286047001.1,N
1627497715.7,286047001.1,N
1627497735.5,286047000.0,N
1627497755.3,286047000.0,N
1627497775.2,286047000.9,N
1627497795.0,286047001.0,N
1627497795.9,286047001.0,N
1627497815.8,286047001.1,N
1627497835.6,286046998.5,N
1627497855.4,286046998.4,N
1627497875.3,286046998.3,N
1627497895.1,286046999.0,N
1627497915.8,286046998.3,N
1627497935.7,286046999.2,N
1627497955.5,286046998.1,N
1627497975.3,286046998.2,N
1627497995.2,286046998.4,N
1627498015.0,286047000.9,N
1627498015.9,286047000.9,N
1627498035.8,286046998.4,N
1627498055.6,286046998.4,N
1627498075.4,286046998.7,N
1627498095.3,286046996.5,Y
1627498115.1,286046996.7,P
1627498135.9,286046999.4,N
1627498155.7,286046999.1,N
1627498175.5,286046997.3,N
1627498195.4,286046999.2,N
1627498215.2,286046999.6,N
1627498235.0,286046999.2,N
1627498235.9,286046999.2,N
1627498255.8,286046999.2,N
1627498275.6,286046996.7,Y
1627498295.5,286046998.9,P
1627498315.3,286046998.9,P
1627498335.1,286046999.0,P
1627498355.9,286046998.6,Y
1627498375.7,286047000.4,P
1627498395.5,286047000.4,N
1627498415.4,286047002.3,P
1627498435.2,286047002.4,N
1627498455.1,286047001.6,N
1627498456.0,286047001.6,N
1627498475.8,286047001.5,N
1627498495.6,286047002.1,N
1627498515.5,286047002.1,N
1627498535.3,286047002.2,N
1627498555.1,286047001.6,N
1627498575.9,286047001.7,N
1627498595.7,286047002.2,N
1627498615.6,286047002.2,N
1627498635.4,286047002.6,N
1627498655.2,286046999.7,N
1627498675.1,286047002.8,N
1627498676.0,286047002.8,N
1627498695.8,286047002.0,N
1627498715.6,286047002.3,N
1627498735.5,286047002.2,N
1627498755.3,286047002.1,N
1627498775.2,286047002.7,N
1627498795.9,286047002.4,N
